Terminal Aerodrome Forecast
Issued by NWS

Home | Current Version | Previous Version | Text Only | Print | Product List | Glossary On
Versions: 1 2 3 4 5 6 7 8 9 10 11 12 13 14 15 16 17 18 19 20 21 22 23 24
000
FTUS44 KOUN 020525
TAFCSM
TAF
KCSM 020525Z 0206/0306 16015KT P6SM SCT090
     FM021600 19015G24KT P6SM SCT070=

USA.gov is the U.S. government's official web portal to all federal, state and local government web resources and services.